San Antonio Stinson, TX

10:40 AM CDT on March 27, 2017 (GMT -0500)
Stinson Municipal

Weather History for KSSF - January, 2012

Change the Weather History Date:

Monday, January 9, 2012

  Actual Average Record
Temperature  
Mean Temperature 54 °F -  
Max Temperature 63 °F 62 °F 81 °F (2009)
Min Temperature 46 °F 41 °F 30 °F (1999)
Degree Days  
Heating Degree Days 10    
Growing Degree Days 4 (Base 50)    
Moisture  
Dew Point 50 °F    
Average Humidity 85    
Maximum Humidity 94    
Minimum Humidity 74    
Precipitation  
Precipitation 0.07 in - - ()
Sea Level Pressure  
Sea Level Pressure 29.98 in    
Wind  
Wind Speed 9 mph (North)    
Max Wind Speed 14 mph    
Max Gust Speed 21 mph    
Visibility 10 miles    
Events Rain    
Averages and records for this station are not official NWS values.
T = Trace of Precipitation, MM = Missing Value Source: NWS Daily Summary

Daily Weather History Graph

Daily Weather History Graph

Search for Another Location

Airport or City:

Trip Planner

Search our weather history database for the weather conditions in past years. The results will help you decide how hot, cold, wet, or windy it might be!

Date:

Astronomy

Jan. 09, 2012 Rise Set
Actual Time 7:29 AM CST 5:52 PM CST
Civil Twilight 7:03 AM CST 6:18 PM CST
Nautical Twilight 6:34 AM CST 6:47 PM CST
Astronomical Twilight 6:05 AM CST 7:16 PM CST
Moon 6:35 PM CST (1/9) 7:34 AM CST (1/9)
Length of Visible Light 11h 14m
Length of Day
10h 23m
Full, 100% of the Moon is Illuminated
Jan 9
Full
Jan 16
Last Quarter
Jan 23
New
Jan 30
First Quarter
Feb 7
Full

Hourly Weather History & Observations

Time (CST) Temp. Windchill Dew Point Humidity Pressure Visibility Wind Dir Wind Speed Gust Speed Precip Events Conditions
12:03 AM 62.6 °F - 59.0 °F 88% 29.94 in 10.0 mi NE 5.8 mph - N/A   Overcast
12:53 AM 63.0 °F - 59.0 °F 87% 29.92 in 10.0 mi North 6.9 mph - N/A   Overcast
1:53 AM 63.0 °F - 59.0 °F 87% 29.93 in 10.0 mi NNE 5.8 mph - N/A   Overcast
2:15 AM 62.6 °F - 60.8 °F 94% 29.93 in 10.0 mi NNE 6.9 mph - 0.00 in Rain Light Rain
2:44 AM 62.6 °F - 59.0 °F 88% 29.93 in 10.0 mi NNE 6.9 mph - 0.00 in   Overcast
2:53 AM 62.1 °F - 59.0 °F 90% 29.91 in 10.0 mi NNE 8.1 mph - 0.00 in Rain Light Rain
3:53 AM 59.0 °F - 55.9 °F 90% 29.90 in 10.0 mi NE 9.2 mph - 0.00 in   Overcast
4:07 AM 59.0 °F - 55.4 °F 88% 29.91 in 10.0 mi NE 9.2 mph - N/A   Overcast
4:53 AM 57.0 °F - 54.0 °F 89% 29.89 in 10.0 mi NNE 11.5 mph 18.4 mph N/A   Overcast
5:18 AM 57.2 °F - 53.6 °F 88% 29.91 in 10.0 mi North 6.9 mph 17.3 mph N/A   Overcast
5:53 AM 57.0 °F - 53.1 °F 87% 29.91 in 10.0 mi NNE 10.4 mph 19.6 mph N/A   Overcast
6:53 AM 55.0 °F - 53.1 °F 93% 29.92 in 7.0 mi NE 11.5 mph - 0.04 in Rain Light Rain
7:53 AM 54.0 °F - 52.0 °F 93% 29.94 in 10.0 mi NE 12.7 mph 18.4 mph 0.01 in   Overcast
8:09 AM 53.6 °F - 51.8 °F 94% 29.95 in 10.0 mi NE 8.1 mph - 0.00 in Rain Light Rain
8:53 AM 54.0 °F - 52.0 °F 93% 29.98 in 10.0 mi North 10.4 mph - 0.00 in   Overcast
9:43 AM 53.6 °F - 51.8 °F 94% 29.99 in 10.0 mi North 12.7 mph - N/A   Overcast
10:53 AM 53.1 °F - 50.0 °F 89% 30.01 in 10.0 mi North 12.7 mph - 0.00 in Rain Light Rain
11:53 AM 53.1 °F - 50.0 °F 89% 29.99 in 10.0 mi North 12.7 mph 20.7 mph 0.02 in   Overcast
12:53 PM 53.1 °F - 48.0 °F 83% 29.98 in 10.0 mi North 11.5 mph 20.7 mph N/A   Overcast
2:53 PM 53.1 °F - 46.0 °F 77% 29.96 in 10.0 mi North 11.5 mph - N/A   Overcast
3:53 PM 53.1 °F - 46.9 °F 80% 29.99 in 10.0 mi NNW 10.4 mph - N/A   Overcast
4:53 PM 53.1 °F - 46.9 °F 80% 30.01 in 10.0 mi NNW 8.1 mph - N/A   Overcast
5:53 PM 51.1 °F - 46.9 °F 86% 30.04 in 10.0 mi NNW 9.2 mph - N/A   Overcast
6:53 PM 52.0 °F - 45.0 °F 77% 30.04 in 10.0 mi NW 13.8 mph - N/A   Overcast
7:53 PM 52.0 °F - 45.0 °F 77% 30.06 in 10.0 mi NNW 10.4 mph 18.4 mph N/A   Overcast
8:53 PM 50.0 °F - 42.1 °F 74% 30.06 in 10.0 mi NW 11.5 mph 18.4 mph N/A   Overcast
9:53 PM 48.9 °F - 41.0 °F 74% 30.08 in 10.0 mi NW 10.4 mph - N/A   Overcast
10:53 PM 46.9 °F - 39.9 °F 77% 30.11 in 10.0 mi NNW 10.4 mph - N/A   Overcast
11:27 PM 46.4 °F 44.3 °F 39.2 °F 76% 30.09 in 10.0 mi NNW 4.6 mph - N/A   Overcast
11:53 PM 46.9 °F - 39.0 °F 74% 30.10 in 10.0 mi NW 6.9 mph - N/A   Partly Cloudy